Location: Brahman Valley
(40.6513°N, 111.8855°W)
Time: 22:39:06
(UTC+00:00)

Vanguard 2 - Pass Details

Date: 14 May 2021
Orbit: 552 x 2937 km, 32.9° (Epoch: 14 June)

Event Time Altitude Azimuth Distance (km) Brightness Sun altitude
Rises 12:15:16 0° 229° (SW) 4,086 10.6 -0.1°
Reaches altitude 10° 12:17:47 10° 223° (SW) 3,388 10.3 0.3°
Maximum altitude 12:26:13 44° 154° (SSE) 2,418 10.2 1.7°
Drops below altitude 10° 12:39:27 10° 89° (E) 5,251 13.4 4.1°
Sets 12:44:25 0° 85° (E) 6,517 14.2 5.0°
